FW7782 Weather Reports


Display with metric or nautical units.
time (UTC)temp
F
wind
direction
speed
MPH
gust
MPH
rain 1hr
in
rain 24hr
in
rain mn
in
humidity
%
barometer
mb
20260510194556 69 167 4.0 7.0 0.00 0.00 0.00 65 1011.6
20260510193049 69 0 0.0 3.0 0.00 0.00 0.00 64 1011.7
20260510191547 69 0 0.0 4.0 0.00 0.00 0.00 64 1011.5
20260510190054 70 219 3.0 9.0 0.00 0.00 0.00 63 1011.2
20260510184552 70 229 5.0 11.0 0.00 0.00 0.00 62 1011.3
20260510183059 71 158 3.0 10.0 0.00 0.00 0.00 61 1011.1
20260510181617 72 221 6.0 11.0 0.00 0.00 0.00 60 1011.2
20260510180103 73 135 6.0 12.0 0.00 0.00 0.00 58 1011.1
20260510174600 73 193 6.0 13.0 0.00 0.00 0.00 56 1011.3
20260510173054 74 233 6.0 14.0 0.00 0.00 0.00 55 1011.2
20260510171549 74 215 8.0 16.0 0.00 0.00 0.00 54 1011.1
20260510170049 75 162 8.0 21.0 0.00 0.00 0.00 53 1011.1
20260510164551 75 151 10.0 19.0 0.00 0.00 0.00 53 1011.2
20260510163055 75 193 10.0 23.0 0.00 0.00 0.00 52 1011.1
20260510161555 76 244 12.0 21.0 0.00 0.00 0.00 51 1011.1
20260510160049 76 248 11.0 19.0 0.00 0.00 0.00 54 1011.0
20260510154546 75 188 12.0 21.0 0.00 0.00 0.00 55 1011.0
20260510153104 75 167 13.0 24.0 0.00 0.00 0.00 54 1011.1
20260510151549 75 217 14.0 23.0 0.00 0.00 0.00 56 1011.2
20260510150048 76 167 9.0 18.0 0.00 0.00 0.00 55 1011.4
20260510144551 76 136 10.0 24.0 0.00 0.00 0.00 55 1011.6
20260510143059 76 148 13.0 23.0 0.00 0.00 0.00 56 1011.6
20260510141557 77 160 12.0 21.0 0.00 0.00 0.00 52 1011.6
20260510140052 77 195 11.0 19.0 0.00 0.00 0.00 53 1011.9
20260510134555 75 157 8.0 14.0 0.00 0.00 0.00 58 1012.1
20260510133051 72 137 10.0 18.0 0.00 0.00 0.00 74 1012.4
20260510131550 72 135 11.0 19.0 0.00 0.00 0.00 71 1012.6
20260510130052 73 127 10.0 16.0 0.00 0.00 0.00 68 1012.8
20260510124551 72 134 11.0 16.0 0.00 0.00 0.00 74 1012.9
20260510123052 73 159 11.0 17.0 0.00 0.00 0.00 72 1013.1
20260510121545 71 140 10.0 18.0 0.00 0.00 0.00 75 1013.4
20260510120053 71 136 8.0 15.0 0.00 0.00 0.00 78 1013.4
20260510114554 68 96 8.0 15.0 0.00 0.02 0.00 83 1013.4
20260510113054 69 132 7.0 14.0 0.00 0.02 0.00 81 1014.0
20260510111548 69 132 9.0 14.0 0.00 0.02 0.00 78 1014.1
20260510110051 68 131 10.0 14.0 0.00 0.02 0.00 76 1014.1
20260510104553 69 115 9.0 13.0 0.00 0.05 0.00 75 1014.3
20260510103055 71 133 5.0 9.0 0.00 0.05 0.00 71 1014.2
20260510101600 70 155 2.0 7.0 0.00 0.05 0.00 70 1014.5
20260510100118 71 130 2.0 6.0 0.00 0.05 0.00 71 1014.4
20260510094556 70 103 2.0 7.0 0.00 0.25 0.00 72 1014.7
20260510093100 70 89 1.0 4.0 0.00 0.25 0.00 74 1014.7
20260510091556 69 129 1.0 5.0 0.00 0.25 0.00 74 1014.7
20260510090111 69 131 1.0 4.0 0.00 0.25 0.00 75 1015.0
20260510084549 68 160 1.0 4.0 0.00 0.58 0.00 77 1014.9
20260510083100 67 108 1.0 4.0 0.00 0.58 0.00 79 1015.0
20260510081553 66 0 0.0 2.0 0.00 0.58 0.00 81 1015.2
20260510080054 65 257 0.0 3.0 0.00 0.58 0.00 83 1015.0
20260510074551 63 252 0.0 4.0 0.00 0.77 0.00 87 1015.2
20260510073051 62 289 1.0 4.0 0.00 0.77 0.00 87 1015.2
20260510071557 63 313 2.0 4.0 0.00 0.77 0.00 85 1015.0
20260510070050 62 0 0.0 2.0 0.00 0.77 0.00 89 1014.8
20260510064546 61 0 0.0 4.0 0.00 1.09 0.00 90 1014.8
20260510063052 60 306 0.0 4.0 0.00 1.09 0.00 91 1014.9
20260510061553 59 303 1.0 4.0 0.00 1.09 0.00 92 1014.8
20260510060053 58 335 1.0 3.0 0.00 1.09 0.00 93 1014.7
20260510054551 56 13 3.0 4.0 0.00 1.18 0.00 95 1014.4
20260510053056 55 320 1.0 3.0 0.00 1.18 0.00 94 1014.4
20260510051555 55 307 2.0 4.0 0.00 1.18 0.00 95 1014.2
20260510050054 55 323 0.0 3.0 0.00 1.18 0.00 95 1014.5
20260510044552 55 307 1.0 3.0 0.00 1.18 0.00 94 1014.4
20260510043057 55 307 1.0 3.0 0.00 1.18 0.00 94 1014.4
20260510041551 56 318 0.0 1.0 0.00 1.18 0.00 94 1014.3
20260510034556 56 0 0.0 1.0 0.00 1.18 0.00 93 1014.0
20260510033114 56 318 0.0 3.0 0.00 1.18 0.00 92 1013.9
20260510031558 57 0 0.0 1.0 0.00 1.18 0.00 91 1013.9
20260510030052 57 0 0.0 3.0 0.00 1.18 0.00 91 1013.9
20260510024556 58 14 2.0 3.0 0.00 1.18 0.00 92 1013.8
20260510023045 57 36 2.0 4.0 0.00 1.18 0.00 92 1013.8
20260510021553 58 20 2.0 4.0 0.00 1.18 0.00 91 1013.8
20260510020053 58 46 4.0 6.0 0.00 1.18 0.00 90 1013.8
20260510014551 60 43 3.0 5.0 0.00 1.18 0.00 90 1013.6
20260510013055 60 41 2.0 4.0 0.00 1.18 0.00 91 1013.8
20260510011555 59 49 2.0 4.0 0.00 1.18 0.00 91 1013.8
20260510010052 59 42 2.0 4.0 0.00 1.18 0.00 91 1013.8
20260510004556 59 0 0.0 0.0 0.00 1.18 0.00 91 1014.3
20260510003110 60 0 0.0 0.0 0.00 1.18 0.00 91 1014.3
20260510001556 61 0 0.0 0.0 0.00 1.18 0.00 91 1013.9
20260509234601 61 0 0.0 1.0 0.00 1.18 0.00 91 1014.5
20260509233054 60 0 0.0 0.0 0.00 1.18 0.00 90 1014.4
20260509231555 61 0 0.0 0.0 0.00 1.18 0.00 89 1014.4
20260509230057 61 0 0.0 0.0 0.00 1.18 0.00 88 1014.5
20260509224553 61 0 0.0 1.0 0.00 1.18 0.00 88 1014.7
20260509223050 61 139 1.0 3.0 0.00 1.18 0.00 87 1014.6
20260509221555 62 164 1.0 3.0 0.00 1.18 0.00 86 1014.6
20260509220057 62 214 1.0 5.0 0.00 1.18 0.00 86 1014.7
20260509214549 62 134 0.0 4.0 0.00 1.18 1.18 84 1014.7
20260509213059 62 129 1.0 3.0 0.00 1.18 1.18 83 1014.5
20260509211601 62 163 2.0 5.0 0.00 1.18 1.18 82 1014.6
20260509210052 63 135 3.0 6.0 0.00 1.18 1.18 81 1014.4
20260509204550 63 195 3.0 7.0 0.00 1.18 1.18 80 1014.2
20260509203052 63 150 2.0 6.0 0.00 1.18 1.18 80 1014.2
20260509201546 63 214 2.0 5.0 0.00 1.18 1.18 81 1014.1
20260509200053 63 159 3.0 4.0 0.00 1.18 1.18 81 1013.5